Home   Weather   Neuruppin   Past weeks

Flag for Germany Past Weather in Neuruppin, Brandenburg, Germany — Yesterday and Last 2 Weeks

Now
41 °F

Clear.


Feels Like: 36 °F
Forecast: 38 / 44 °F
Wind: 7 mph from Southwest

Location: Berlin-Tegel

Current Time: Dec 7, 2016 at 11:16:53 pm

Latest Report: Dec 7, 2016 at 10:20 pm


Visibility: 10 mi

Pressure: 30.33 "Hg

Humidity: 81%

Dew Point: 36 °F

Location of NeuruppinLocation

Past Weather in Neuruppin — Graph

°F

Neuruppin Temperature Yesterday

Maximum temperature yesterday: 34 °F (at 9:50 am)
Minimum temperature yesterday: 28 °F (at 12:20 am)
Average temperature yesterday: 33 °F

High & Low Weather Summary for the Past Weeks

 TemperatureHumidityPressure
High54 °F (Nov 23, 12:50 pm)100% (Nov 22, 11:50 pm)30.57 "Hg (Nov 22, 11:50 pm)
Low19 °F (Nov 29, 1:20 am)56% (Nov 28, 2:20 pm)29.74 "Hg (Dec 1, 10:20 pm)
Average35 °F89%30.24 "Hg
* Reported Nov 22 9:20 pm — Dec 7 9:50 pm, Neuruppin, Weather by CustomWeather, © 2016

Note: Actual official high and low records may vary slightly from our data, if they occured in-between our weather recording intervals... More about our weather records

Advertising

Neuruppin Weather History for the Previous 24 Hours

Scroll right to see more
 ConditionsComfort  
Time TempWeatherWind HumidityBarometerVisibility
9:50 pm
Wed, Dec 7
41 °FLight rain. Clear.10 mph81%30.33 "HgN/A
9:20 pm39 °FLight rain. Passing clouds.8 mph81%30.36 "HgN/A
8:50 pm39 °FLight rain. Passing clouds.7 mph81%30.36 "HgN/A
8:20 pm37 °FLight rain. Passing clouds.7 mph87%30.36 "HgN/A
7:50 pm37 °FLight rain. Passing clouds.8 mph81%30.36 "HgN/A
7:20 pm37 °FLight rain. Passing clouds.8 mph81%30.36 "HgN/A
6:50 pm37 °FLight rain. Passing clouds.7 mph75%30.36 "HgN/A
6:20 pm37 °FLight rain. Passing clouds.6 mph75%30.39 "HgN/A
5:50 pm37 °FLight rain. Partly cloudy.9 mph75%30.39 "HgN/A
5:20 pm36 °FPassing clouds.9 mph75%30.39 "HgN/A
4:50 pm36 °FLight rain. Passing clouds.7 mph75%30.39 "HgN/A
4:20 pm36 °FClear.10 mph75%30.39 "Hg10 mi
3:20 pm36 °FSunny.8 mph75%30.42 "Hg10 mi
2:50 pm36 °FSunny.8 mph75%30.42 "Hg10 mi
2:20 pm37 °FSunny.13 mph75%30.42 "Hg10 mi
1:50 pm37 °FPassing clouds.9 mph75%30.42 "HgN/A
1:20 pm37 °FPassing clouds.10 mph81%30.42 "HgN/A
12:50 pm37 °FPassing clouds.9 mph81%30.45 "HgN/A
12:20 pm37 °FPassing clouds.10 mph81%30.45 "HgN/A
11:50 am37 °FPassing clouds.10 mph81%30.45 "HgN/A
11:20 am36 °FPartly sunny.9 mph87%30.48 "HgN/A
10:50 am36 °FPartly sunny.9 mph87%30.48 "HgN/A
10:20 am36 °FSunny.8 mph87%30.51 "Hg10 mi
9:50 am34 °FSunny.7 mph93%30.51 "Hg10 mi
9:20 am34 °FSunny.7 mph93%30.51 "Hg10 mi
8:50 am34 °FSunny.8 mph93%30.51 "Hg10 mi
8:20 am34 °FPartly sunny.7 mph93%30.51 "HgN/A
7:50 am34 °FPartly cloudy.7 mph93%30.51 "HgN/A
7:20 am34 °FPassing clouds.7 mph93%30.51 "Hg6 mi
6:50 am34 °FFog.7 mph100%30.51 "Hg3 mi
6:20 am34 °FFog.7 mph100%30.54 "Hg3 mi
5:50 am34 °FFog.6 mph100%30.54 "Hg3 mi
5:20 am34 °FFog.7 mph100%30.54 "Hg3 mi
4:50 am34 °FFog.6 mph100%30.54 "Hg3 mi
4:20 am34 °FFog.3 mph100%30.54 "Hg2 mi
3:50 am34 °FFog.3 mph100%30.57 "Hg2 mi
3:20 am34 °FFog.3 mph100%30.57 "Hg2 mi
2:50 am34 °FFog.5 mph100%30.57 "Hg2 mi
2:20 am34 °FFog.5 mph100%30.57 "Hg2 mi
1:50 am34 °FFog.3 mph100%30.57 "Hg1 mi
1:20 am34 °FFog.2 mph100%30.57 "Hg1 mi
12:50 am34 °FFog.2 mph100%30.57 "Hg1 mi
12:20 am34 °FFog.5 mph100%30.54 "Hg1 mi
11:50 pm
Tue, Dec 6
34 °FFog.6 mph100%30.54 "Hg1 mi
11:20 pm34 °FFog.3 mph100%30.54 "Hg1 mi
Weather by CustomWeather, © 2016

See weather overviewHow to use our weather pages